Tracking 18032 objects as of 25-March-2017
HD Live streaming from Space Station
objects crossing your sky now

USA 25

Track USA 25 now!
10-day predictions
USA 25 is classified as:


NORAD ID: 18025
Int'l Code: 1987-043H
Perigee: 454.4 km
Apogee: 1,745.9 km
Inclination: 63.3 °
Period: 107.1 minutes
Semi major axis: 7471 km
RCS: Unknown
Launch date: May 15, 1987
Source: United States (US)
Launch site: AIR FORCE WESTERN TEST RANGE (AFWTR)
Your satellite tracking list
Your tracking list is empty





NASA's NSSDC Master Catalog

Two Line Element Set (TLE):
1 18025U 87043H   17080.84939981 0.00000770  00000-0  11627-3 0    02
2 18025  63.3372 354.5050 0864347  40.2200 319.9002 13.44382258    08
Source of the keplerian elements: McCants